Date String (YYYY-MM-DD hh:mm:ss) UTC,Instrument flags,Ambient pressure (hPa),Sample flow (lpm),Bypass flow (lpm),Sample temperature (°C),Ambient temperature (°C),ASC tube jacket temperature (°C),LED temperature (°C),Box temperature (°C),Sample RH (%),Mass concentration (μg/m³),Mass concentration (μg/m³)
DateTimeUTC,F1_M11,P_M11,Q1_M11,Q2_M11,T1_M11,T2_M11,T3_M11,T4_M11,T5_M11,U1_M11,X0_M11,X2_M11
2021-08-19 11:00:00,,0824.7,5.00,0.00,29.6,26.1,00.0,38.9,31.0,30.9,0011.72,0007.69
2021-08-19 11:01:00,,0824.6,5.02,0.00,29.5,26.6,00.0,38.9,31.1,31.0,0011.79,0007.67
2021-08-19 11:02:00,,0824.6,5.00,0.00,29.5,27.0,00.0,38.8,31.1,31.0,0011.87,0007.60
2021-08-19 11:03:00,,0824.6,5.00,0.00,29.5,27.4,00.0,38.8,31.2,31.0,0012.23,0007.57
2021-08-19 11:04:00,,0824.6,4.99,0.00,29.5,27.7,00.0,38.8,31.3,30.9,0012.14,0007.53
2021-08-19 11:05:00,,0824.6,5.01,0.00,29.6,27.9,00.0,38.8,31.3,30.9,0011.96,0007.43
2021-08-19 11:06:00,,0824.6,5.00,0.00,29.6,28.1,00.0,38.8,31.4,30.9,0011.84,0007.36
2021-08-19 11:07:00,,0824.6,4.99,0.00,29.6,28.3,00.0,38.8,31.4,30.9,0011.53,0007.30
2021-08-19 11:08:00,,0824.8,5.01,0.00,29.6,28.4,00.0,38.8,31.5,30.8,0011.31,0007.29
2021-08-19 11:09:00,,0824.7,4.99,0.00,29.7,28.5,00.0,38.8,31.5,30.8,0011.20,0007.23
2021-08-19 11:10:00,,0824.7,4.99,0.00,29.7,28.6,00.0,38.8,31.5,30.7,0010.96,0007.19
2021-08-19 11:11:00,,0824.7,5.01,0.00,29.8,28.7,00.0,38.8,31.6,30.7,0010.94,0007.18
2021-08-19 11:12:00,,0824.8,4.99,0.00,29.8,28.8,00.0,38.8,31.7,30.6,0010.80,0007.15
2021-08-19 11:13:00,,0824.6,5.01,0.00,29.8,28.9,00.0,38.9,31.7,30.6,0010.66,0007.13
2021-08-19 11:14:00,,0824.7,4.99,0.00,29.9,29.0,00.0,38.9,31.7,30.5,0010.10,0007.12
2021-08-19 11:15:00,,0824.8,5.02,0.00,29.9,29.0,00.0,38.9,31.8,30.4,0010.03,0007.08
2021-08-19 11:16:00,,0824.8,4.98,0.00,29.9,29.1,00.0,38.9,31.8,30.4,0009.96,0007.03
2021-08-19 11:17:00,,0824.7,5.01,0.00,29.9,29.1,00.0,38.9,31.8,30.3,0009.96,0007.03
2021-08-19 11:18:00,,0824.7,4.99,0.00,30.0,29.2,00.0,39.0,31.9,30.3,0010.12,0007.04
2021-08-19 11:19:00,,0824.7,5.00,0.00,30.0,29.2,00.0,39.0,31.9,30.2,0010.50,0007.04
2021-08-19 11:20:00,,0824.7,5.00,0.00,30.0,28.9,00.0,39.0,31.8,30.2,0010.59,0007.04
2021-08-19 11:21:00,,0824.6,5.01,0.00,29.9,27.1,00.0,39.0,31.3,30.3,0010.58,0007.03
2021-08-19 11:22:00,,0824.7,5.00,0.00,29.8,26.3,00.0,39.0,31.1,30.6,0010.56,0007.02
2021-08-19 11:23:00,,0824.8,5.00,0.00,29.7,26.6,00.0,38.9,31.1,30.8,0010.58,0007.03
2021-08-19 11:24:00,,0824.8,5.00,0.00,29.6,27.0,00.0,38.9,31.2,30.9,0010.49,0006.98
2021-08-19 11:25:00,,0824.8,5.00,0.00,29.6,27.4,00.0,38.9,31.3,30.9,0010.49,0006.98
2021-08-19 11:26:00,,0824.8,5.00,0.00,29.6,27.7,00.0,38.8,31.3,30.9,0010.47,0006.97
2021-08-19 11:27:00,,0824.8,5.00,0.00,29.6,28.0,00.0,38.8,31.4,30.8,0010.68,0007.04
2021-08-19 11:28:00,,0824.8,5.01,0.00,29.7,28.2,00.0,38.8,31.4,30.8,0010.77,0007.05
2021-08-19 11:29:00,,0824.8,5.00,0.00,29.7,28.3,00.0,38.8,31.5,30.8,0010.68,0007.07
2021-08-19 11:30:00,,0824.8,5.00,0.00,29.7,28.5,00.0,38.8,31.5,30.7,0010.25,0007.04
2021-08-19 11:31:00,,0824.8,5.00,0.00,29.8,28.6,00.0,38.9,31.6,30.7,0010.14,0007.02
2021-08-19 11:32:00,,0824.8,5.00,0.00,29.8,28.7,00.0,38.9,31.6,30.7,0010.14,0007.02
2021-08-19 11:33:00,,0824.9,5.00,0.00,29.8,28.8,00.0,38.9,31.7,30.6,0010.15,0007.01
2021-08-19 11:34:00,,0824.9,5.00,0.00,29.8,28.9,00.0,38.9,31.7,30.6,0010.13,0007.00
2021-08-19 11:35:00,,0824.9,5.00,0.00,29.9,29.0,00.0,38.9,31.7,30.5,0010.16,0007.02
2021-08-19 11:36:00,,0824.9,5.01,0.00,29.9,29.0,00.0,38.9,31.8,30.4,0010.23,0007.02
2021-08-19 11:37:00,,0825.0,4.99,0.00,30.0,29.1,00.0,39.0,31.8,30.4,0010.18,0007.01
2021-08-19 11:38:00,,0825.0,4.99,0.00,30.0,29.1,00.0,39.0,31.9,30.3,0010.09,0007.00
2021-08-19 11:39:00,,0825.0,5.02,0.00,30.0,29.0,00.0,39.0,31.8,30.3,0009.96,0006.99
2021-08-19 11:40:00,,0825.0,4.99,0.00,29.9,27.4,00.0,39.0,31.4,30.4,0010.04,0006.98
2021-08-19 11:41:00,,0825.0,5.00,0.00,29.8,26.4,00.0,39.0,31.1,30.7,0010.20,0007.00
2021-08-19 11:42:00,,0825.1,5.01,0.00,29.7,26.5,00.0,38.9,31.1,31.0,0010.24,0007.03
2021-08-19 11:43:00,,0825.0,5.01,0.00,29.6,26.9,00.0,38.9,31.2,31.0,0010.30,0007.04
2021-08-19 11:44:00,,0825.1,5.00,0.00,29.6,27.3,00.0,38.9,31.2,31.0,0010.33,0007.05
2021-08-19 11:45:00,,0825.1,5.01,0.00,29.6,27.6,00.0,38.8,31.3,31.0,0010.41,0007.04
2021-08-19 11:46:00,,0825.0,5.00,0.00,29.6,27.9,00.0,38.8,31.4,31.0,0011.29,0007.08
2021-08-19 11:47:00,,0825.1,5.01,0.00,29.7,28.1,00.0,38.8,31.4,30.9,0011.17,0007.06
2021-08-19 11:48:00,,0825.0,4.98,0.00,29.7,28.3,00.0,38.8,31.4,30.9,0011.23,0007.07
2021-08-19 11:49:00,,0825.0,5.00,0.00,29.7,28.4,00.0,38.8,31.5,30.9,0011.30,0007.10
2021-08-19 11:50:00,,0825.0,4.99,0.00,29.7,28.6,00.0,38.8,31.5,30.8,0011.34,0007.10
2021-08-19 11:51:00,,0825.0,5.01,0.00,29.8,28.7,00.0,38.9,31.6,30.8,0011.15,0007.11
2021-08-19 11:52:00,,0825.0,4.99,0.00,29.8,28.8,00.0,38.9,31.6,30.8,0011.03,0007.08
2021-08-19 11:53:00,,0825.0,4.99,0.00,29.8,28.9,00.0,38.9,31.7,30.7,0011.09,0007.06
2021-08-19 11:54:00,,0825.0,5.01,0.00,29.9,28.9,00.0,38.9,31.7,30.7,0011.15,0007.07
2021-08-19 11:55:00,,0825.0,5.00,0.00,29.9,29.0,00.0,38.9,31.8,30.6,0011.30,0007.09
2021-08-19 11:56:00,,0824.9,5.00,0.00,29.9,29.0,00.0,38.9,31.7,30.6,0011.32,0007.10
2021-08-19 11:57:00,,0825.0,4.99,0.00,29.9,29.1,00.0,39.0,31.8,30.6,0010.40,0007.10
2021-08-19 11:58:00,,0824.9,5.01,0.00,30.0,29.1,00.0,39.0,31.8,30.5,0010.60,0007.13
2021-08-19 11:59:00,,0824.9,5.00,0.00,29.9,27.8,00.0,39.0,31.4,30.6,0010.69,0007.15
